Location: GMARS
(34.2910°N, 116.3838°W)
Time: 13:20:28
(UTC-07:00)

OTV 5 (USA 277) - Visible Passes

Search period start: 21 April 2019 00:00
Search period end: 01 May 2019 00:00
Orbit: 309 x 326 km, 54.5° (Epoch: 21 April)

Date Brightness Start Highest point End Pass type
(mag) Time Alt. Az. Time Alt. Az. Time Alt. Az.
21 Apr ? 04:40:42 10° N 04:42:39 18° NE 04:44:35 10° E visible
22 Apr ? 04:54:51 10° NW 04:57:29 56° NE 05:00:05 10° SE visible
22 Apr ? 21:12:19 10° WSW 21:14:38 31° NW 21:14:38 31° NW visible
23 Apr ? 05:10:00 12° WNW 05:12:09 33° SW 05:14:34 10° SSE visible
23 Apr ? 19:52:48 10° SSW 19:55:17 32° SE 19:57:46 10° ENE visible
23 Apr ? 21:28:24 10° WNW 21:29:43 13° NW 21:31:01 10° N visible
24 Apr ? 20:07:15 10° SW 20:09:57 60° NW 20:12:39 10° NE visible
25 Apr ? 20:22:41 10° W 20:24:46 19° NW 20:26:51 10° N visible
